Date String (YYYY-MM-DD hh:mm:ss) UTC,Instrument flags,Ambient pressure (hPa),Sample flow (lpm),Bypass flow (lpm),Sample temperature (°C),Ambient temperature (°C),ASC tube jacket temperature (°C),LED temperature (°C),Box temperature (°C),Sample RH (%),Span deviation,Mass concentration (μg/m³),Mass concentration (μg/m³),Mass concentration (μg/m³)
DateTimeUTC,F1_M11,P_M11,Q1_M11,Q2_M11,T1_M11,T2_M11,T3_M11,T4_M11,T5_M11,U1_M11,ZSPAN_M11,X2_M11,X0_M11,X1_M11
2023-02-07 07:00:00,,0827.5,4.95,0.00,22.4,22.6,00.0,31.1,24.4,12.6,0000.0,0003.57,0010.02,0002.72
2023-02-07 07:01:00,,0827.5,5.02,0.00,22.4,22.2,00.0,31.1,24.3,12.6,0000.0,0003.57,0010.00,0002.71
2023-02-07 07:02:00,,0827.6,5.01,0.00,22.4,21.8,00.0,31.2,24.3,12.6,0000.0,0003.58,0010.08,0002.71
2023-02-07 07:03:00,,0827.5,5.02,0.00,22.4,21.6,00.0,31.2,24.2,12.7,0000.0,0003.61,0010.68,0002.71
2023-02-07 07:04:00,,0827.5,5.04,0.00,22.4,21.4,00.0,31.2,24.2,12.6,0000.0,0003.56,0010.84,0002.71
2023-02-07 07:05:00,,0827.5,4.99,0.00,22.4,21.2,00.0,31.2,24.1,12.6,0000.0,0003.55,0011.03,0002.71
2023-02-07 07:06:00,,0827.5,5.04,0.00,22.4,21.0,00.0,31.2,24.1,12.6,0000.0,0003.54,0010.72,0002.71
2023-02-07 07:07:00,,0827.5,4.98,0.00,22.3,20.9,00.0,31.2,24.1,12.7,0000.0,0003.54,0010.66,0002.72
2023-02-07 07:08:00,,0827.5,5.04,0.00,22.3,20.8,00.0,31.2,24.0,12.7,0000.0,0003.54,0010.35,0002.72
2023-02-07 07:09:00,,0827.5,4.97,0.00,22.3,20.7,00.0,31.2,24.0,12.7,0000.0,0003.52,0009.69,0002.71
2023-02-07 07:10:00,,0827.6,5.01,0.00,22.3,20.7,00.0,31.2,24.0,12.7,0000.0,0003.50,0009.34,0002.71
2023-02-07 07:11:00,,0827.5,5.00,0.00,22.3,20.7,00.0,31.2,24.0,12.7,0000.0,0003.47,0008.98,0002.71
2023-02-07 07:12:00,,0827.5,5.01,0.00,22.2,20.6,00.0,31.2,23.9,12.6,0000.0,0003.46,0009.43,0002.71
2023-02-07 07:13:00,,0827.5,5.06,0.00,22.2,20.6,00.0,31.2,23.9,12.7,0000.0,0003.43,0009.38,0002.72
2023-02-07 07:14:00,,0827.5,4.97,0.00,22.2,20.5,00.0,31.1,23.9,12.7,0000.0,0003.40,0008.76,0002.71
2023-02-07 07:15:00,,0827.6,5.03,0.00,22.2,20.5,00.0,31.1,23.9,12.7,0000.0,0003.42,0008.43,0002.70
2023-02-07 07:16:00,,0827.6,4.98,0.00,22.2,20.5,00.0,31.1,23.9,12.7,0000.0,0003.42,0008.12,0002.71
2023-02-07 07:17:00,,0827.6,5.04,0.00,22.1,20.5,00.0,31.1,23.8,12.7,0000.0,0003.43,0008.39,0002.71
2023-02-07 07:18:00,,0827.6,4.94,0.00,22.1,20.5,00.0,31.1,23.8,12.7,0000.0,0003.46,0008.54,0002.72
2023-02-07 07:19:00,,0827.7,5.03,0.00,22.1,21.2,00.0,31.0,24.0,12.7,0000.0,0003.46,0008.76,0002.74
2023-02-07 07:20:00,,0827.7,4.99,0.00,22.2,22.2,00.0,31.0,24.2,12.6,0000.0,0003.48,0009.38,0002.74
2023-02-07 07:21:00,,0827.7,4.99,0.00,22.4,22.8,00.0,31.0,24.4,12.5,0000.0,0003.48,0009.26,0002.74
2023-02-07 07:22:00,,0827.7,5.00,0.00,22.4,22.4,00.0,31.1,24.4,12.4,0000.0,0003.50,0009.35,0002.74
2023-02-07 07:23:00,,0827.7,4.97,0.00,22.4,22.0,00.0,31.1,24.3,12.4,0000.0,0003.51,0008.97,0002.74
2023-02-07 07:24:00,,0827.6,5.05,0.00,22.4,21.6,00.0,31.2,24.2,12.4,0000.0,0003.48,0008.87,0002.72
2023-02-07 07:25:00,,0827.6,4.98,0.00,22.4,21.4,00.0,31.2,24.2,12.4,0000.0,0003.49,0009.43,0002.73
2023-02-07 07:26:00,,0827.6,4.97,0.00,22.4,21.2,00.0,31.2,24.1,12.4,0000.0,0003.51,0009.87,0002.74
2023-02-07 07:27:00,,0827.6,5.06,0.00,22.3,21.0,00.0,31.2,24.1,12.4,0000.0,0003.52,0010.52,0002.75
2023-02-07 07:28:00,,0827.6,4.94,0.00,22.3,20.9,00.0,31.2,24.1,12.5,0000.0,0003.51,0010.14,0002.75
2023-02-07 07:29:00,,0827.6,5.01,0.00,22.3,20.8,00.0,31.2,24.0,12.4,0000.0,0003.49,0010.00,0002.75
2023-02-07 07:30:00,,0827.6,4.98,0.00,22.3,20.8,00.0,31.2,24.0,12.4,0000.0,0003.46,0010.10,0002.73
2023-02-07 07:31:00,,0827.5,4.97,0.00,22.3,20.7,00.0,31.2,24.0,12.4,0000.0,0003.42,0009.62,0002.72
2023-02-07 07:32:00,,0827.6,5.04,0.00,22.2,20.7,00.0,31.2,24.0,12.4,0000.0,0003.41,0009.86,0002.72
2023-02-07 07:33:00,,0827.6,4.94,0.00,22.2,20.6,00.0,31.2,23.9,12.5,0000.0,0003.39,0009.79,0002.71
2023-02-07 07:34:00,,0827.6,5.04,0.00,22.2,20.6,00.0,31.1,23.9,12.5,0000.0,0003.40,0010.13,0002.69
2023-02-07 07:35:00,,0827.6,4.99,0.00,22.2,20.6,00.0,31.1,23.9,12.5,0000.0,0003.42,0010.61,0002.68
2023-02-07 07:36:00,,0827.6,5.02,0.00,22.2,20.6,00.0,31.1,23.9,12.5,0000.0,0003.42,0010.19,0002.68
2023-02-07 07:37:00,,0827.6,5.05,0.00,22.1,20.5,00.0,31.1,23.9,12.5,0000.0,0003.41,0010.05,0002.66
2023-02-07 07:38:00,,0827.5,4.96,0.00,22.1,20.5,00.0,31.1,23.8,12.5,0000.0,0003.39,0009.33,0002.64
2023-02-07 07:39:00,,0827.5,5.00,0.00,22.1,20.6,00.0,31.1,23.9,12.5,0000.0,0003.41,0009.45,0002.63
2023-02-07 07:40:00,,0827.5,5.04,0.00,22.2,21.4,00.0,31.0,24.0,12.4,0000.0,0003.37,0009.92,0002.60
2023-02-07 07:41:00,,0827.5,4.98,0.00,22.3,22.5,00.0,31.0,24.3,12.4,0000.0,0003.35,0009.77,0002.59
2023-02-07 07:42:00,,0827.5,5.03,0.00,22.4,22.8,00.0,31.1,24.4,12.2,0000.0,0003.34,0009.44,0002.58
2023-02-07 07:43:00,,0827.5,4.97,0.00,22.4,22.4,00.0,31.1,24.4,12.1,0000.0,0003.34,0009.32,0002.58
2023-02-07 07:44:00,,0827.5,5.00,0.00,22.4,22.0,00.0,31.1,24.3,12.1,0000.0,0003.34,0008.87,0002.58
2023-02-07 07:45:00,,0827.5,5.00,0.00,22.4,21.6,00.0,31.2,24.2,12.1,0000.0,0003.33,0008.61,0002.59
2023-02-07 07:46:00,,0827.5,4.97,0.00,22.4,21.4,00.0,31.2,24.2,12.0,0000.0,0003.30,0007.94,0002.59
2023-02-07 07:47:00,,0827.5,5.05,0.00,22.4,21.2,00.0,31.2,24.2,11.9,0000.0,0003.27,0007.88,0002.57
2023-02-07 07:48:00,,0827.5,4.95,0.00,22.4,21.1,00.0,31.2,24.1,11.9,0000.0,0003.27,0007.71,0002.58
2023-02-07 07:49:00,,0827.4,4.99,0.00,22.3,21.0,00.0,31.2,24.1,11.8,0000.0,0003.24,0007.53,0002.57
2023-02-07 07:50:00,,0827.4,5.05,0.00,22.3,20.9,00.0,31.2,24.1,11.7,0000.0,0003.22,0007.41,0002.55
2023-02-07 07:51:00,,0827.5,4.97,0.00,22.3,20.8,00.0,31.2,24.1,11.5,0000.0,0003.20,0006.50,0002.52
2023-02-07 07:52:00,,0827.4,4.96,0.00,22.3,20.8,00.0,31.2,24.0,11.4,0000.0,0003.18,0005.83,0002.49
2023-02-07 07:53:00,,0827.4,5.04,0.00,22.3,20.7,00.0,31.2,24.0,11.2,0000.0,0003.14,0005.19,0002.44
2023-02-07 07:54:00,,0827.4,4.97,0.00,22.3,20.7,00.0,31.2,24.0,11.2,0000.0,0003.10,0005.39,0002.40
2023-02-07 07:55:00,,0827.4,5.06,0.00,22.2,20.7,00.0,31.2,23.9,11.1,0000.0,0003.03,0005.44,0002.34
2023-02-07 07:56:00,,0827.4,4.99,0.00,22.2,20.7,00.0,31.2,23.9,10.8,0000.0,0002.95,0005.45,0002.28
2023-02-07 07:57:00,,0827.4,4.99,0.00,22.2,20.7,00.0,31.2,23.9,10.6,0000.0,0002.88,0005.44,0002.21
2023-02-07 07:58:00,,0827.4,4.98,0.00,22.2,20.6,00.0,31.1,23.9,10.7,0000.0,0002.80,0005.29,0002.16
2023-02-07 07:59:00,,0827.4,5.06,0.00,22.2,20.6,00.0,31.1,23.8,10.7,0000.0,0002.64,0004.88,0002.09
